Regional Weather Roundup
Issued by NWS

Home | Current Version | Previous Version | Text Only | Print | Product List | Glossary Off
Versions: 1 2 3 4 5 6 7 8 9 10 11 12 13 14 15 16 17 18 19 20 21 22 23 24 25 26 27 28

000
ASUS45 KCYS 290010
RWRWY

WYOMING REGIONAL WEATHER ROUNDUP
NATIONAL WEATHER SERVICE CHEYENNE WY
600 PM MDT FRI APR 28 2017

NOTE:  "FAIR" INDICATES FEW OR NO CLOUDS BELOW 12,000 FEET
WITH NO SIGNIFICANT WEATHER AND/OR OBSTRUCTIONS TO VISIBILITY.

WYZ001-290100-
YELLOWSTONE NATIONAL PARK

CITY           SKY/WX    TMP DP  RH WIND       PRES   REMARKS
LK YELLOWSTONE   N/A     31  22  69 E7        30.01R WCI  24
6HR MIN TEMP:  30; 6HR MAX TEMP:  36; 6HR PCP:  0.01;

W YELLOWSTONE  NOT AVBL

$$
WYZ002>013-054>058-071-098>099-290100-
NORTHERN WYOMING

CITY           SKY/WX    TMP DP  RH WIND       PRES   REMARKS
JACKSON        PTSUNNY   43  25  49 N18       29.93R
CODY           FAIR      38  30  73 NW13      30.07R WCI  30
GREYBULL       CLOUDY    45  25  45 NW16      30.02R
6HR MIN TEMP:  45; 6HR MAX TEMP:  47;

WORLAND        CLOUDY    39  35  86 S9        30.04R WCI  33
6HR MIN TEMP:  38; 6HR MAX TEMP:  45; 6HR PCP:  0.01;

SHERIDAN       CLOUDY    37  32  82 SW5       30.11R WCI  33
6HR MIN TEMP:  34; 6HR MAX TEMP:  39; 6HR PCP:  0.03;

BUFFALO        CLOUDY    34  28  79 W8        30.10R WCI  27
6HR MIN TEMP:  34; 6HR MAX TEMP:  36; 6HR PCP:  0.04;

GILLETTE       PTSUNNY   36  30  79 W10       30.08R WCI  28
6HR MIN TEMP:  34; 6HR MAX TEMP:  39; 6HR PCP:  0.05;

HULETT         MOCLDY    43  25  49 NE9       30.08R
NEWCASTLE      FAIR      41  19  42 N3        30.06R

$$
WYZ014>020-022>026-101>103-290100-
CENTRAL WYOMING

CITY           SKY/WX    TMP DP  RH WIND       PRES   REMARKS
BIG PINEY      CLOUDY    35  28  75 W12       29.92R WCI  27
6HR MIN TEMP:  31; 6HR MAX TEMP:  41; 6HR PCP:  0.01;

PINEDALE       MOCLDY    34  19  55 NE15      29.93R WCI  24
DUBOIS         LGT SNOW  30  25  80 S16G23    29.97R WCI  19
LANDER         LGT SNOW  31  30  96 E7        30.03R FOG     WCI  24
6HR MIN TEMP:  30; 6HR MAX TEMP:  33; 6HR PCP:  0.33;

RIVERTON       LGT SNOW  31  30  96 E12       30.03  VSB 1   WCI  22
6HR MIN TEMP:  31; 6HR MAX TEMP:  33; 6HR PCP:  0.27;

CASPER         CLOUDY    31  27  85 E23       30.02R WCI  18
6HR MIN TEMP:  31; 6HR MAX TEMP:  33; 6HR PCP: TRACE;

DOUGLAS        LGT SNOW  31  28  89 NE16      30.05R FOG     WCI  20
6HR MIN TEMP:  31; 6HR MAX TEMP:  32; 6HR PCP:  0.12;


$$
WYZ021-027>030-104>119-290100-
SOUTHERN WYOMING

CITY           SKY/WX    TMP DP  RH WIND       PRES   REMARKS
EVANSTON       HVY SNOW  29  28  96 NE10G17   29.92R VSB 1/4 WCI  20
6HR MIN TEMP:  28; 6HR MAX TEMP:  34; 6HR PCP: TRACE;

KEMMERER       LGT SNOW  32  28  86 E14       29.92R VSB 1   WCI  22
FORT BRIDGER   CLOUDY    33  33 100 N5        29.93R WCI  28
ROCK SPRINGS   CLOUDY    33  25  72 NE24      29.89R WCI  20
6HR MIN TEMP:  31; 6HR MAX TEMP:  36; 6HR PCP:  0.01;

DIXON            N/A     40  27  58 N6        29.84R
RAWLINS        CLOUDY    31  23  72 E23G30    29.90R WCI  18
6HR MIN TEMP:  31; 6HR MAX TEMP:  34; 6HR PCP:  0.01;

SARATOGA       LGT SNOW  32  30  93 SE14      29.87R WCI  22
LARAMIE        CLOUDY    28  21  75 E21G31    29.89R WCI  15
6HR MIN TEMP:  27; 6HR MAX TEMP:  38; 6HR PCP: TRACE;

CHEYENNE       FRZ RAIN  29  27  92 NE18G24   29.94R VSB 1/2 WCI  16
6HR MIN TEMP:  29; 6HR MAX TEMP:  40; 6HR PCP:  0.02;

TORRINGTON     LGT SNOW  33  32  96 NE7       30.03R VSB 3/4 WCI  27
6HR MIN TEMP:  32; 6HR MAX TEMP:  34; 6HR PCP:  0.07;

PINE BLUFFS    CLOUDY    32  30  93 NE18G24   29.97R WCI  20

$$




USA.gov is the U.S. government's official web portal to all federal, state and local government web resources and services.